Watertown, NY

9:18 AM EDT on September 16, 2019 (GMT -0400)
Watertown International

Weather History for KART - August, 2019

Change the Weather History Date:

Wednesday, August 21, 2019

  Actual Average Record
Temperature  
Mean Temperature 74 °F 67 °F  
Max Temperature 79 °F 78 °F 86 °F (1974)
Min Temperature 68 °F 56 °F 38 °F (1969)
Degree Days  
Heating Degree Days 0 2  
Month to date heating degree days 4 23  
Since 1 June heating degree days 109 156  
Since 1 July heating degree days 7 49  
Cooling Degree Days 9 3  
Month to date cooling degree days 82 84  
Year to date cooling degree days 313 296  
Since 1 June cooling degree days 313 285  
Growing Degree Days 24 (Base 50)    
Moisture  
Dew Point 66 °F    
Average Humidity 77    
Maximum Humidity 90    
Minimum Humidity 64    
Precipitation  
Precipitation 1.19 in 0.10 in 1.30 in (2016)
Month to date precipitation 2.59 2.15  
Year to date precipitation 26.95 20.80  
Sea Level Pressure  
Sea Level Pressure 29.86 in    
Wind  
Wind Speed 5 mph (SSW)    
Max Wind Speed 16 mph    
Max Gust Speed 24 mph    
Visibility 7 miles    
Events Fog , Rain , Thunderstorm    
T = Trace of Precipitation, MM = Missing Value Source: NWS Daily Summary

Daily Weather History Graph

Daily Weather History Graph

Search for Another Location

Airport or City:

Astronomy

Aug. 21, 2019 Rise Set
Actual Time 6:14 AM EDT 7:59 PM EDT
Civil Twilight 5:43 AM EDT 8:29 PM EDT
Nautical Twilight 5:06 AM EDT 9:06 PM EDT
Astronomical Twilight 4:25 AM EDT 9:47 PM EDT
Moon 11:03 PM EDT (8/21) 11:59 AM EDT (8/21)
Length of Visible Light 14h 45m
Length of Day
13h 44m
Waning Gibbous, 69% of the Moon is Illuminated
Aug 21
Waning Gibbous
Aug 23
Last Quarter
Aug 30
New
Sep 5
First Quarter
Sep 14
Full

Hourly Weather History & Observations

Time (EDT) Temp. Dew Point Humidity Pressure Visibility Wind Dir Wind Speed Gust Speed Precip Events Conditions
12:56 AM 73.0 °F 60.1 °F 64% 29.92 in 10.0 mi South 4.6 mph - N/A   Partly Cloudy
1:56 AM 73.9 °F 61.0 °F 64% 29.90 in 10.0 mi South 5.8 mph - N/A   Clear
2:56 AM 75.0 °F 62.1 °F 64% 29.88 in 10.0 mi South 6.9 mph - N/A   Clear
3:56 AM 75.0 °F 63.0 °F 66% 29.86 in 10.0 mi Variable 4.6 mph - N/A   Partly Cloudy
4:56 AM 75.0 °F 64.0 °F 69% 29.84 in 10.0 mi Calm Calm - N/A   Partly Cloudy
5:56 AM 73.9 °F 64.9 °F 73% 29.84 in 10.0 mi South 3.5 mph - N/A   Clear
6:53 AM 75.2 °F 64.4 °F 69% 29.85 in 10.0 mi SSW 3.5 mph - N/A Thunderstorm Mostly Cloudy
6:56 AM 75.0 °F 64.9 °F 71% 29.84 in 10.0 mi SW 5.8 mph - N/A Thunderstorm Thunderstorm
7:04 AM 73.9 °F 64.9 °F 73% 29.86 in 1.2 mi SSW 8.1 mph - 0.08 in Rain , Thunderstorm Thunderstorms and Rain
7:22 AM 70.0 °F 66.9 °F 90% 29.89 in - SSW 16.1 mph - 0.57 in Rain , Thunderstorm Heavy Thunderstorms and Rain
7:30 AM 70.0 °F 66.9 °F 90% 29.89 in 0.5 mi SW 9.2 mph 24.2 mph 0.65 in Fog , Rain , Thunderstorm Thunderstorms and Rain
7:46 AM 71.1 °F 68.0 °F 90% 29.90 in 2.5 mi South 9.2 mph - 0.71 in Rain , Thunderstorm Thunderstorms and Rain
7:52 AM 69.8 °F 68.0 °F 94% 29.91 in 1.0 mi SSW 6.9 mph - 0.81 in Rain , Thunderstorm Heavy Rain
7:56 AM 70.0 °F 68.0 °F 93% 29.91 in 0.8 mi South 8.1 mph - 0.92 in Rain , Thunderstorm Heavy Thunderstorms and Rain
8:03 AM 70.0 °F 66.9 °F 90% 29.91 in 0.8 mi SSE 12.7 mph 21.9 mph 0.10 in Rain , Thunderstorm Heavy Thunderstorms and Rain
8:09 AM 70.0 °F 66.9 °F 90% 29.92 in 1.0 mi SSE 9.2 mph 21.9 mph 0.13 in Rain , Thunderstorm Heavy Thunderstorms and Rain
8:19 AM 70.0 °F 68.0 °F 93% 29.91 in 1.2 mi SSE 5.8 mph - 0.18 in Rain , Thunderstorm Rain
8:25 AM 69.1 °F 66.0 °F 90% 29.90 in 2.0 mi SE 3.5 mph - 0.19 in Rain , Thunderstorm Rain
8:34 AM 69.1 °F 64.9 °F 87% 29.89 in 3.0 mi Calm Calm - 0.20 in Rain Rain
8:45 AM 69.1 °F 66.0 °F 90% 29.89 in 2.0 mi Calm Calm - 0.22 in Rain Light Rain
8:56 AM 69.1 °F 66.0 °F 90% 29.88 in 3.0 mi Calm Calm - 0.23 in Rain Light Rain
9:56 AM 69.1 °F 66.9 °F 93% 29.87 in 9.0 mi Calm Calm - 0.01 in Rain Light Rain
11:56 AM 72.0 °F 68.0 °F 87% 29.84 in 10.0 mi SE 6.9 mph - 0.03 in   Overcast
12:56 PM 75.9 °F 69.1 °F 79% 29.85 in 10.0 mi SW 8.1 mph - N/A   Mostly Cloudy
2:56 PM 78.1 °F 66.9 °F 68% 29.83 in 10.0 mi WSW 6.9 mph - N/A   Clear
3:56 PM 78.1 °F 68.0 °F 71% 29.81 in 10.0 mi West 13.8 mph - N/A   Partly Cloudy
4:56 PM 79.0 °F 66.9 °F 66% 29.81 in 10.0 mi West 9.2 mph - N/A   Clear
5:56 PM 75.9 °F 66.9 °F 74% 29.82 in 10.0 mi SW 9.2 mph - N/A   Clear
6:56 PM 75.9 °F 64.9 °F 69% 29.79 in 10.0 mi South 6.9 mph - N/A   Clear
7:56 PM 73.0 °F 64.9 °F 76% 29.79 in 10.0 mi South 4.6 mph - N/A   Clear
8:56 PM 71.1 °F 64.9 °F 81% 29.79 in 10.0 mi South 3.5 mph - N/A   Clear
9:56 PM 69.1 °F 64.0 °F 84% 29.80 in 10.0 mi Calm Calm - N/A   Clear
10:56 PM 71.1 °F 64.9 °F 81% 29.79 in 10.0 mi Variable 4.6 mph - N/A   Clear
11:56 PM 73.9 °F 66.0 °F 76% 29.78 in 10.0 mi South 6.9 mph - N/A   Mostly Cloudy